User: anonymous   Login
Location: Bothwell
(42.3833°S, 147.0000°E)
Time: 06:43:42
(UTC+10:00)
Language:

AO-92 - Orbit

View from above orbital plane
View from above orbital plane
View from above satellite
View from above satellite

Ground track
Ground track

The orbit data is extracted from the following two-line orbital elements,

1 43137U 18004AC  22267.16744295  .00011436  00000-0  38320-3 0  9992
2 43137  97.3621 341.5054 0007621  23.0591 337.0991 15.31059809261435
Epoch (UTC): 24 September 2022 04:01:07
Eccentricity: 0.0007621
inclination: 97.3621°
perigee height: 467 km
apogee height: 478 km
right ascension of ascending node: 341.5054°
argument of perigee: 23.0591°
revolutions per day: 15.31059809
mean anomaly at epoch: 337.0991°
orbit number at epoch: 26143

The dashed part of the orbit path shows where the satellite is in the earth's shadow,  

DLR